Oscoda, MI

10:27 PM EDT on April 23, 2017 (GMT -0400)
Oscoda-Wurtsmith

Weather History for KOSC - September, 2013

Change the Weather History Date:

Thursday, September 12, 2013

  Actual Average Record
Temperature  
Mean Temperature 65 °F -  
Max Temperature 75 °F 71 °F 89 °F (2005)
Min Temperature 54 °F 51 °F 45 °F (2014)
Growing Degree Days 15 (Base 50)    
Moisture  
Dew Point 54 °F    
Average Humidity 70    
Maximum Humidity 96    
Minimum Humidity 38    
Precipitation  
Precipitation 0.00 in - - ()
Sea Level Pressure  
Sea Level Pressure 29.90 in    
Wind  
Wind Speed 8 mph (NW)    
Max Wind Speed 23 mph    
Max Gust Speed 30 mph    
Visibility 10 miles    
Events Rain    
Averages and records for this station are not official NWS values.
T = Trace of Precipitation, MM = Missing Value Source: NWS Daily Summary

Daily Weather History Graph

Daily Weather History Graph

Search for Another Location

Airport or City:

Trip Planner

Search our weather history database for the weather conditions in past years. The results will help you decide how hot, cold, wet, or windy it might be!

Date:

Astronomy

Sep. 12, 2013 Rise Set
Actual Time 7:09 AM EDT 7:49 PM EDT
Civil Twilight 6:39 AM EDT 8:18 PM EDT
Nautical Twilight 6:05 AM EDT 8:53 PM EDT
Astronomical Twilight 5:28 AM EDT 9:29 PM EDT
Moon 2:51 PM EDT (9/12) No Moon Set
Length of Visible Light 13h 38m
Length of Day
12h 40m
Waxing Crescent, 50% of the Moon is Illuminated
Sep 12
Waxing Crescent
Sep 12
First Quarter
Sep 19
Full
Sep 26
Last Quarter
Oct 4
New

Hourly Weather History & Observations

Time (EDT) Temp. Dew Point Humidity Pressure Visibility Wind Dir Wind Speed Gust Speed Precip Events Conditions
12:13 AM 63.7 °F 61.2 °F 91% 29.91 in 10.0 mi Calm Calm - N/A   Clear
12:34 AM 62.6 °F 60.3 °F 92% 29.90 in 10.0 mi South 3.5 mph - N/A   Clear
12:53 AM 61.9 °F 59.5 °F 92% 29.89 in 10.0 mi SSW 4.6 mph - N/A   Clear
1:14 AM 60.4 °F 59.2 °F 96% 29.88 in 10.0 mi SSW 4.6 mph - N/A   Clear
1:34 AM 62.4 °F 60.4 °F 93% 29.88 in 10.0 mi SW 3.5 mph - N/A   Clear
1:53 AM 61.0 °F 59.5 °F 95% 29.87 in 10.0 mi SW 4.6 mph - N/A   Clear
2:14 AM 62.1 °F 60.4 °F 94% 29.87 in 10.0 mi SW 4.6 mph - N/A   Clear
2:34 AM 63.1 °F 61.5 °F 94% 29.87 in 10.0 mi Calm Calm - N/A   Scattered Clouds
2:53 AM 64.0 °F 62.2 °F 94% 29.86 in 10.0 mi Calm Calm - N/A   Mostly Cloudy
3:14 AM 65.5 °F 63.5 °F 93% 29.86 in 10.0 mi West 4.6 mph - N/A   Overcast
3:34 AM 65.7 °F 63.5 °F 93% 29.86 in 10.0 mi West 4.6 mph - N/A   Overcast
3:53 AM 66.2 °F 63.7 °F 92% 29.85 in 10.0 mi Calm Calm - N/A   Overcast
4:14 AM 65.8 °F 63.7 °F 93% 29.85 in 10.0 mi West 6.9 mph - N/A   Overcast
4:34 AM 66.2 °F 63.9 °F 92% 29.85 in 10.0 mi WNW 5.8 mph - N/A Rain Rain
4:53 AM 65.8 °F 64.2 °F 94% 29.85 in 10.0 mi WNW 5.8 mph - N/A Rain Light Rain
5:14 AM 65.7 °F 64.4 °F 96% 29.85 in 10.0 mi WNW 8.1 mph - N/A Rain Light Rain
5:34 AM 65.8 °F 63.7 °F 93% 29.85 in 10.0 mi WNW 8.1 mph - N/A   Overcast
5:53 AM 65.3 °F 62.8 °F 92% 29.85 in 10.0 mi WNW 10.4 mph - N/A   Mostly Cloudy
6:14 AM 64.0 °F 61.7 °F 92% 29.86 in 10.0 mi NW 8.1 mph - N/A   Scattered Clouds
6:34 AM 63.0 °F 60.8 °F 93% 29.87 in 10.0 mi NW 9.2 mph - N/A   Scattered Clouds
6:53 AM 61.9 °F 59.9 °F 93% 29.87 in 10.0 mi NW 10.4 mph - N/A   Clear
7:14 AM 61.7 °F 59.7 °F 93% 29.88 in 10.0 mi NW 5.8 mph - N/A   Clear
7:33 AM 61.2 °F 59.2 °F 93% 29.88 in 10.0 mi NW 3.5 mph - N/A   Clear
7:53 AM 61.2 °F 59.2 °F 93% 29.89 in 10.0 mi WNW 3.5 mph - N/A   Clear
8:14 AM 62.2 °F 59.0 °F 89% 29.89 in 10.0 mi WNW 6.9 mph - N/A   Clear
8:33 AM 63.0 °F 59.4 °F 88% 29.89 in 10.0 mi NW 6.9 mph - N/A   Clear
8:53 AM 63.9 °F 59.7 °F 86% 29.89 in 10.0 mi NW 9.2 mph - N/A   Clear
9:14 AM 65.1 °F 59.5 °F 82% 29.89 in 10.0 mi NW 8.1 mph - N/A   Clear
9:33 AM 66.0 °F 59.4 °F 79% 29.89 in 10.0 mi NW 11.5 mph 18.4 mph N/A   Clear
9:53 AM 67.5 °F 59.2 °F 75% 29.89 in 10.0 mi NW 10.4 mph 20.7 mph N/A   Clear
10:14 AM 67.3 °F 57.7 °F 71% 29.90 in 10.0 mi NW 13.8 mph 25.3 mph N/A   Mostly Cloudy
10:33 AM 67.8 °F 57.7 °F 70% 29.90 in 10.0 mi NW 11.5 mph 20.7 mph N/A   Scattered Clouds
10:53 AM 68.2 °F 57.2 °F 68% 29.90 in 10.0 mi NNW 16.1 mph 20.7 mph N/A   Mostly Cloudy
11:14 AM 69.3 °F 56.7 °F 64% 29.91 in 10.0 mi NNW 16.1 mph 23.0 mph N/A   Mostly Cloudy
11:33 AM 70.2 °F 55.4 °F 59% 29.91 in 10.0 mi NW 16.1 mph 21.9 mph N/A   Mostly Cloudy
11:53 AM 71.2 °F 55.8 °F 58% 29.90 in 10.0 mi WNW 12.7 mph 20.7 mph N/A   Mostly Cloudy
12:14 PM 71.2 °F 54.1 °F 55% 29.90 in 10.0 mi NW 12.7 mph 19.6 mph N/A   Scattered Clouds
12:33 PM 72.9 °F 54.0 °F 51% 29.90 in 10.0 mi NW 10.4 mph 17.3 mph N/A   Mostly Cloudy
12:54 PM 73.0 °F 51.4 °F 47% 29.90 in 10.0 mi NW 15.0 mph 23.0 mph N/A   Scattered Clouds
1:14 PM 71.8 °F 51.8 °F 49% 29.90 in 10.0 mi NNW 15.0 mph 20.7 mph N/A   Mostly Cloudy
1:33 PM 73.8 °F 51.4 °F 45% 29.90 in 10.0 mi NNW 13.8 mph 21.9 mph N/A   Overcast
1:54 PM 73.8 °F 50.9 °F 45% 29.89 in 10.0 mi NNW 12.7 mph - N/A   Mostly Cloudy
2:14 PM 73.8 °F 50.9 °F 45% 29.89 in 10.0 mi WNW 11.5 mph 19.6 mph N/A   Mostly Cloudy
2:33 PM 73.2 °F 50.2 °F 44% 29.89 in 10.0 mi NW 13.8 mph - N/A   Mostly Cloudy
2:54 PM 75.2 °F 48.0 °F 38% 29.89 in 10.0 mi NW 18.4 mph 23.0 mph N/A   Scattered Clouds
3:14 PM 73.8 °F 48.0 °F 40% 29.89 in 10.0 mi WNW 13.8 mph 19.6 mph N/A   Mostly Cloudy
3:33 PM 72.9 °F 47.5 °F 40% 29.89 in 10.0 mi NW 16.1 mph 21.9 mph N/A   Scattered Clouds
3:54 PM 73.4 °F 46.6 °F 38% 29.89 in 10.0 mi NNW 15.0 mph 20.7 mph N/A   Scattered Clouds
4:14 PM 70.3 °F 47.1 °F 43% 29.89 in 10.0 mi NW 17.3 mph 25.3 mph N/A   Scattered Clouds
4:33 PM 68.2 °F 48.0 °F 48% 29.90 in 10.0 mi NNW 16.1 mph 24.2 mph N/A   Scattered Clouds
4:54 PM 66.4 °F 46.6 °F 49% 29.91 in 10.0 mi NNW 17.3 mph 24.2 mph N/A   Mostly Cloudy
5:14 PM 68.4 °F 46.6 °F 46% 29.90 in 10.0 mi NW 20.7 mph 27.6 mph N/A   Mostly Cloudy
5:33 PM 66.4 °F 46.0 °F 48% 29.91 in 10.0 mi NNW 23.0 mph 29.9 mph N/A   Scattered Clouds
5:54 PM 64.8 °F 45.3 °F 49% 29.91 in 10.0 mi NNW 18.4 mph 24.2 mph N/A   Clear
6:13 PM 62.1 °F 44.8 °F 53% 29.91 in 10.0 mi NW 17.3 mph 27.6 mph N/A   Clear
6:33 PM 61.7 °F 45.1 °F 55% 29.92 in 10.0 mi NW 17.3 mph 23.0 mph N/A   Mostly Cloudy
6:54 PM 61.3 °F 45.3 °F 56% 29.93 in 10.0 mi NW 16.1 mph 26.5 mph N/A   Overcast
7:13 PM 60.8 °F 46.0 °F 58% 29.93 in 10.0 mi NNW 10.4 mph 17.3 mph N/A   Overcast
7:33 PM 59.9 °F 44.8 °F 57% 29.93 in 10.0 mi NNW 13.8 mph 24.2 mph N/A   Overcast
7:54 PM 59.2 °F 44.6 °F 58% 29.94 in 10.0 mi NNW 8.1 mph 21.9 mph N/A   Overcast
8:13 PM 58.5 °F 45.5 °F 62% 29.94 in 10.0 mi NNW 17.3 mph 24.2 mph N/A   Mostly Cloudy
8:33 PM 57.9 °F 45.5 °F 63% 29.95 in 10.0 mi NW 11.5 mph 17.3 mph N/A   Mostly Cloudy
8:54 PM 57.4 °F 45.1 °F 64% 29.96 in 10.0 mi NNW 10.4 mph - N/A   Overcast
9:13 PM 57.7 °F 44.6 °F 62% 29.96 in 10.0 mi NNW 15.0 mph 19.6 mph N/A   Overcast
9:33 PM 57.6 °F 43.7 °F 60% 29.97 in 10.0 mi NNW 16.1 mph 27.6 mph N/A   Overcast
9:54 PM 57.2 °F 43.2 °F 59% 29.98 in 10.0 mi NNW 15.0 mph 21.9 mph N/A   Overcast
10:13 PM 57.0 °F 42.4 °F 58% 29.98 in 10.0 mi NW 18.4 mph 26.5 mph N/A   Overcast
10:33 PM 56.5 °F 43.3 °F 61% 29.98 in 10.0 mi NW 17.3 mph 21.9 mph N/A   Overcast
10:54 PM 56.1 °F 43.9 °F 64% 29.98 in 10.0 mi NNW 13.8 mph 19.6 mph N/A   Overcast
11:13 PM 55.8 °F 44.6 °F 66% 29.98 in 10.0 mi NW 16.1 mph 21.9 mph N/A   Overcast
11:34 PM 55.4 °F 45.0 °F 68% 29.98 in 10.0 mi NW 16.1 mph 23.0 mph N/A   Overcast
11:54 PM 54.9 °F 45.5 °F 71% 29.98 in 10.0 mi NNW 15.0 mph 21.9 mph N/A   Overcast